Regional Weather Roundup
Issued by NWS Charleston, SC

Current Version | Previous Version | Graphics & Text | Print | Product List | Glossary On
Versions: 1 2 3 4 5 6 7 8 9 10 11 12 13 14 15 16 17 18 19 20 21 22 23 24 25 26 27 28 29 30 31 32 33 34 35 36 37 38 39 40 41 42 43 44 45 46 47 48 49 50
000
ASUS42 KCHS 290312
RWRCHS

REGIONAL WEATHER ROUNDUP
NATIONAL WEATHER SERVICE CHARLESTON SC
1100 PM EDT TUE MAR 28 2017

NOTE: "FAIR" INDICATES FEW OR NO CLOUDS BELOW 12,000 FEET WITH NO
SIGNIFICANT WEATHER AND/OR OBSTRUCTIONS TO VISIBILITY.

NOT ALL STATIONS ARE QUALITY CONTROLLED. USE DATA WITH CAUTION...
ESPECIALLY DEWPOINT OBSERVATIONS.

SCZ027-030-031-034>040-042>050-290400-
...SOUTHEAST SOUTH CAROLINA...

CITY           SKY/WX    TMP DP  RH WIND       PRES   REMARKS
N CHARLESTON   CLEAR     65  61  87 SW5       29.96R
WATERFRONT PRK   N/A     67  63  86 SW6       29.95R
JOHNS ISLAND   FAIR      68  63  83 SW9       29.97R
PINOPOLIS        N/A     70  64  83 SW7       29.86R
MONCKS CORNER  FAIR      64  61  88 SW5       29.96R
SUMMERVILLE    FAIR      64  63  94 CALM      29.97R
BEAUFORT MCAS  CLEAR     67  66  97 S5        29.97R
BEAUFORT ARPT  FAIR      64  63  94 S3        29.97R
HILTON HEAD IS CLEAR     70  64  83 VRB7      29.99R
WALTERBORO     CLEAR     64  63  94 CALM      29.97S
ALLENDALE      FAIR      68  59  73 CALM      29.96R

...SOUTHERN MIDLANDS AND PEE DEE...

CITY           SKY/WX    TMP DP  RH WIND       PRES   REMARKS
GEORGETOWN     FAIR      63  61  94 SW7       29.96R
KINGSTREE      FAIR      64  57  77 CALM      29.95R
ORANGEBURG     CLEAR     66  57  72 CALM      29.96R
BARNWELL       FAIR      66  61  82 CALM      29.96R
AIKEN          FAIR      64  55  72 CALM      30.00R
MANNING        FAIR      63  57  82 CALM      29.95R
COLUMBIA       CLEAR     66  57  72 VRB5      29.94R
SUMTER         PTCLDY    69  57  65 NW3       29.93R
FLORENCE       CLEAR     71  57  61 N5        29.95R
MYRTLE BEACH   NOT AVBL
N MYRTLE BEACH PTCLDY    64  62  93 W5        29.92R

$$

GAZ063-065-086>088-099>101-113>116-118-119-134>141-150-290400-
...SOUTHEAST GEORGIA...

CITY           SKY/WX    TMP DP  RH WIND       PRES   REMARKS
SAVANNAH ARPT  CLEAR     71  58  63 VRB3      29.98R
HUNTER AAF     CLEAR     69  66  90 CALM      29.96R
FORT STEWART   CLEAR     67  61  83 CALM      29.97R
STATESBORO     MOCLDY    65  64  95 CALM      29.98R
SYLVANIA       CLEAR    N/A N/A N/A CALM      29.99R
CLAXTON        FAIR     N/A N/A N/A CALM      29.99R

...CSRA...CENTRAL AND FAR SOUTHEAST GEORGIA...

CITY           SKY/WX    TMP DP  RH WIND       PRES   REMARKS
THOMSON        CLEAR     62  58  84 CALM      30.03R
AUGUSTA-BUSH   CLEAR     63  59  87 CALM      29.96R
AUGUSTA-DANIEL CLEAR     74  55  51 NW5       29.97R
SWAINSBORO     MOCLDY    64  61  88 CALM      29.99R
VIDALIA        CLEAR     70  61  73 S5        29.99S
EASTMAN        CLOUDY    69  53  57 CALM      30.02R
HAZLEHURST     FAIR      70  65  83 CALM      29.99R
ALMA           CLEAR     65  62  90 CALM      29.99R
WAYCROSS       CLEAR     70  66  87 CALM      30.00S
JESUP          FAIR      68  59  73 CALM      29.99S
BAXLEY         FAIR      68  68 100 CALM      29.99S
BRUNSWICK      CLEAR     68  63  83 CALM      30.00S
SAINT SIMONS   CLEAR     70  62  76 S3        30.00R

$$

SCZ027-028-034-036>038-045-046-048>050-GAZ119-141-290400-
...LAKE AND SUPPLEMENTAL COASTAL OBSERVATIONS...

STATION/POSITION TIME  TEMP    WIND        PRES    WAVE   SWELL
                       AIR SEA DIR/SP/G            HT/PER HT/PER/DIR
                 (UTC) (F)     (DEG/KT/KT) (MB)    (FT/S) (FT/S/D)
WINYAH BAY       0145   69     250/  6     1013.0
LAKE MURRAY      0220   68        CALM     1013.5
ACE BASIN NERRS  NOT AVBL
FORT PULASKI     0248   69 65  210/  5/  8 1015.5R
SAPELO ISLAND    0200   70     190/  9     1015.0

$$

ANZ835-935-AMZ111-154-330-350-352-354-370-450-454-472-290400-
...C-MAN AND BUOY OBSERVATIONS...

STATION/POSITION TIME  TEMP    WIND        PRES    WAVE   SWELL
                       AIR SEA DIR/SP/G            HT/PER HT/PER/DIR
                 (UTC) (F)     (DEG/KT/KT) (MB)    (FT/S) (FT/S/D)
BUOY 41004       0150   70 71  240/ 12/ 14 1013.8    5/11   3/130/11
BUOY 41008       0150   66 64  210/ 10/ 12 1014.7    3/11   3/110/11
FOLLY BEACH CMAN 0300   66     230/  8/ 12 1015.3R
CAPERS NEARSHORE NOT AVBL
FRIPP NEARSHORE  0208   66 64  230/  8/ 12 1014.6R


STATION/POSITION TIME  TEMP    WIND        PRES    WAVE   SWELL
                       AIR SEA DIR/SP/G            HT/PER HT/PER/DIR
                 (UTC) (F)     (DEG/KT/KT) (MB)    (FT/S) (FT/S/D)
5E ST. MARYS GA  0230      67                N/A     4/12   2/120/12
FRYING PAN BUOY  0250   73 73  230/ 19/ 25 1013.0F   5/10   5/160/10
BUOY 41025       0250   71 74  260/ 19/ 21 1012.0F   5/10   3/150/10
CAPE LOOKOUT NC  0300   65     250/  9/ 11 1012.6F
BUOY 41002       0150   70 73  210/ 10/ 12 1016.2    6/10   7/100/10
BUOY 41010       NOT AVBL
ST AUGUSTINE FL  0300   71 69  210/  7/  9 1017.4R


$$




USA.gov is the U.S. government's official web portal to all federal, state and local government web resources and services.